Starlink 11227

operational
NORAD ID: 60303 Int'l Des: 2024-133 Owner: SPXS Country: US Constellation: starlink
LEOCIRCULAR

Über Starlink 11227

Beschreibung wird geladen...

Live-Position

3D-Globus wird geladen...

Nächste Überflüge

Höhenverlauf

Altitude vs Time

uPlot chart will show altitude changes over time

Zweizeiliger Elementsatz

1 60303U 24133C 26038.00714615 .00004922 00000-0 45452-4 0 9999
2 60303 53.1573 297.5829 0000970 101.9796 258.1330 15.69715876 88990
Epoch: 7. Feb. 2026 • Age: 16 hours

Aktueller Status

Höhe 360.1 km
Geschwindigkeit 7.70 km/s
Subsatellitenpunkt 23.67°N, 76.14°E
Startdatum 28. Juli 2024
Alter 1.5 years
Typ internet

Technische Details

Klassifizierung Payload
Masse 960.00 kg
Trockenmasse 910.00 kg
Gesamtmasse 960.00 kg
Länge 0.30 m
Durchmesser 4.10 m
Spannweite 29.00 m
Form Box + pan
Hersteller SPXS
Bus-Typ Starlink V2MD
Phasenstatus In Orbit
Besitzer/Staat SPXS/US

Große Konstellationen

Loading constellations...